Voltar ao catálogo

CZ-3C DEB

AtivoGTO
NORAD 40202·DEBRIS·🇨🇳 China

Lançado Feb 24, 2012 de Xichang Satellite Launch Center

Loading…

TLE

ObsoletoSource: Space-Track

Época: Sep 12, 2026, 17:54 UTC

1 40202U 12008M   26255.74592217  .00000098  00000-0  45263-3 0  9996
2 40202  19.6484 159.7821 7129396 258.2799  20.6512  2.36572919113021

Acompanhe CZ-3C DEB em tempo real com AllMySat

Download on the App Store